Wind_Speed
9 6 3 2 2 3 5 1 1 1 2 2 4 5 8 10 10 10 14 15 5 4 2 6 6 9 11 11 13 15 12 7 3 3 3 5 18 26 30 34 36 36 33 30 28 26 27 27 27 27 26 26 24 23 23 23 23 23 22 23 23 22 20 20 20 19 19 19 19 18 18 17 17 18 18 18 19 17 17 18 17 16 15 15 15 14 14 14 13 13 13 14 14 14 13 12 11
8 5 2 1 2 1 2 2 1 2 2 3 6 7 9 6 8 12 15 12 3 2 3 8 7 11 18 17 14 17 14 11 10 7 7 18 26 24 30 35 36 36 33 31 28 27 27 27 27 26 26 26 24 23 22 23 23 22 22 22 22 21 19 19 19 18 18 18 18 17 17 16 16 17 18 18 18 16 17 17 16 16 15 14 14 13 14 13 13 13 12 13 12 12 12 10 12
9 6 4 4 3 2 2 1 1 2 3 5 6 6 8 6 11 12 7 4 2 1 7 8 8 9 16 19 16 14 8 9 15 10 9 20 19 17 29 34 35 35 34 32 28 27 27 27 26 26 25 25 24 23 22 22 23 22 22 21 21 19 18 19 18 17 17 17 17 16 16 15 15 15 17 18 17 16 16 16 15 15 14 13 13 13 13 13 12 13 12 12 12 12 11 10 15
9 7 8 6 2 2 1 1 3 2 3 5 6 6 7 9 11 6 2 1 1 4 6 6 9 11 15 18 12 12 8 7 14 12 7 14 19 22 29 31 33 33 32 30 29 27 26 27 26 25 25 25 25 23 22 22 23 22 21 21 20 18 18 18 17 17 17 17 16 16 16 15 15 14 16 18 17 16 16 16 15 14 13 13 13 13 13 12 12 12 12 12 12 11 9 11 16
10 9 9 6 1 1 1 2 3 3 5 5 4 6 7 5 3 3 0 3 2 5 6 4 7 10 14 12 5 6 6 8 13 15 12 17 26 28 28 30 31 30 29 29 29 28 26 26 25 25 25 24 25 24 23 22 23 22 21 20 20 18 17 17 16 17 16 16 16 15 15 15 15 15 15 16 17 17 16 16 15 14 13 13 13 13 12 12 11 10 11 12 12 10 8 12 16
9 8 9 7 3 2 0 3 3 5 7 6 6 9 9 5 1 3 2 3 3 5 7 6 9 12 10 9 8 6 5 9 11 17 19 23 27 27 29 29 29 27 27 28 28 28 26 25 24 25 25 24 24 24 24 23 23 22 21 21 20 18 16 16 17 16 16 16 15 15 15 15 15 16 16 15 16 16 16 15 15 14 13 13 13 13 12 11 10 9 11 11 9 8 8 12 15
6 4 4 4 3 2 1 4 4 6 8 8 10 12 11 7 3 2 3 3 4 4 5 8 14 13 7 6 8 11 15 17 13 18 25 26 27 27 29 28 27 26 26 28 27 27 26 24 24 24 24 24 24 25 25 24 24 23 22 21 21 18 16 16 17 17 16 15 15 14 14 15 16 16 16 15 14 14 15 14 14 13 13 13 12 12 12 11 9 10 10 9 7 8 9 12 15
7 3 1 2 1 2 3 4 6 7 8 10 12 12 9 6 5 3 3 1 1 1 4 9 17 13 7 11 8 9 21 26 24 26 29 28 27 27 28 28 27 25 25 27 27 26 25 24 24 24 24 23 23 25 25 25 25 23 22 22 21 18 17 17 17 16 15 15 15 14 14 15 15 15 16 15 14 13 13 13 13 12 12 11 11 11 10 9 9 9 8 7 7 9 11 12 13
8 4 1 1 2 3 4 4 7 9 10 12 13 13 6 4 1 4 3 2 1 0 2 7 16 13 9 17 12 5 14 25 31 30 29 28 26 27 26 26 26 25 25 26 27 27 25 24 24 24 23 23 23 24 25 26 25 24 23 22 21 18 17 17 17 16 15 15 15 14 14 14 14 15 16 15 14 14 13 13 12 12 11 10 10 10 9 8 7 7 6 7 8 9 11 12 12
4 4 2 2 3 4 5 5 7 9 12 13 14 13 4 5 3 4 4 5 3 3 5 12 16 15 12 14 9 4 10 23 31 28 28 29 26 25 24 24 25 25 26 27 28 27 25 25 24 24 23 23 24 25 26 26 25 24 23 22 20 18 18 17 17 16 15 14 13 13 14 13 13 14 15 15 15 14 14 14 13 12 11 10 9 10 9 8 6 6 7 7 7 8 9 11 12
2 3 2 2 3 4 5 6 7 8 11 12 13 11 5 7 5 5 4 4 5 5 8 16 14 15 15 11 5 6 16 24 29 26 27 30 27 25 25 25 24 24 27 28 28 27 26 25 24 24 24 24 25 26 27 27 25 24 23 22 20 19 18 18 17 15 14 13 12 12 13 13 13 14 14 14 14 13 13 14 13 13 12 11 10 10 10 9 7 6 6 7 7 7 8 9 11
3 3 2 3 4 5 5 6 8 9 10 11 8 2 4 7 6 4 4 0 3 6 1 9 11 13 14 8 3 7 16 20 24 26 26 29 26 25 25 25 23 23 27 28 28 27 26 25 25 25 24 25 26 27 27 27 26 24 23 22 20 19 19 18 16 15 13 13 12 12 13 13 13 14 14 14 13 13 13 13 12 12 11 10 9 10 10 9 7 7 6 6 6 6 6 7 9
4 4 2 4 4 5 6 7 8 8 7 7 4 4 6 7 5 5 5 1 0 6 5 10 14 13 11 6 4 5 12 16 22 26 26 27 24 24 24 23 22 23 27 28 28 27 26 26 26 25 25 26 26 27 27 27 26 24 23 21 20 20 19 17 16 14 13 13 13 13 13 14 14 14 14 14 14 13 13 12 11 10 9 9 9 9 9 7 6 7 6 5 5 5 5 6 8
4 4 2 4 4 5 6 6 7 6 5 4 2 2 3 5 3 3 6 2 1 1 7 16 14 14 12 7 5 3 8 16 23 28 28 27 25 24 23 22 23 25 26 27 27 27 26 25 26 26 26 27 27 27 27 26 25 24 22 21 21 20 18 17 15 14 13 14 14 13 14 14 14 14 15 15 15 14 13 11 10 9 8 8 7 7 7 6 5 5 5 4 5 4 5 6 7
5 3 3 4 4 5 5 7 7 5 5 5 3 2 1 3 3 4 6 2 1 3 12 14 9 11 10 8 6 5 10 19 24 28 29 27 25 24 22 22 23 23 24 25 26 26 25 25 26 26 26 27 27 26 26 24 23 23 22 21 20 19 18 16 15 14 14 14 14 14 14 14 15 15 16 16 15 14 13 11 9 8 7 7 6 5 5 5 3 3 3 3 4 5 6 6 6
5 2 3 4 5 6 5 7 7 5 5 4 4 2 2 1 3 5 4 2 2 9 12 7 4 8 12 10 12 15 19 24 26 29 29 25 23 21 20 21 21 21 22 23 24 24 25 25 25 26 26 26 26 26 24 23 22 22 21 20 19 18 17 16 15 15 15 13 13 14 14 14 15 15 15 15 15 14 12 10 9 7 6 5 5 5 5 4 3 2 2 2 3 4 6 6 6
4 4 4 4 5 6 6 6 4 3 3 2 7 7 5 2 2 2 4 6 9 14 14 10 10 10 12 14 21 26 27 28 29 29 26 22 19 18 17 18 20 20 20 21 22 23 24 24 25 25 25 25 25 24 23 22 21 21 21 19 18 17 17 16 15 15 14 13 13 14 14 14 14 14 14 14 14 13 12 9 8 7 5 5 5 5 5 4 4 3 3 2 3 4 6 6 7
4 3 4 5 6 7 8 9 5 3 3 3 5 4 5 5 2 2 3 10 15 16 13 14 16 15 17 23 28 30 30 29 27 26 22 18 16 15 14 15 17 18 19 20 20 22 23 24 25 25 24 24 24 24 23 22 21 21 20 19 18 17 16 15 15 15 14 15 15 14 14 14 13 13 13 13 13 13 11 8 7 7 6 5 4 4 5 5 4 4 3 2 3 5 7 7 7
4 3 4 5 6 9 10 11 10 7 4 5 6 2 2 4 3 1 1 7 15 15 12 15 19 18 19 25 27 27 28 25 23 23 20 16 15 14 13 14 15 16 18 20 20 21 23 24 25 25 24 24 23 23 23 22 21 21 20 19 19 18 17 16 16 16 16 16 16 15 15 14 13 12 11 11 12 12 10 8 7 6 6 5 4 4 5 5 4 3 3 2 3 6 8 8 8
5 4 4 5 8 11 12 13 13 10 3 3 4 3 2 1 0 2 2 8 14 13 10 13 17 18 18 21 24 24 22 19 19 20 18 16 15 15 15 15 16 17 19 20 20 21 22 24 25 24 24 24 23 22 22 22 21 21 20 19 19 18 17 16 16 16 17 17 16 16 15 15 14 13 12 11 11 10 9 8 7 6 5 4 3 3 4 4 4 4 3 3 4 8 10 9 9
4 5 6 8 8 10 14 13 13 10 5 5 2 4 5 4 3 2 4 8 9 10 12 14 16 18 19 19 20 19 15 13 14 15 16 16 16 15 15 16 17 19 20 20 20 20 22 24 24 23 24 24 22 21 22 22 20 20 20 19 19 18 17 17 17 16 17 17 16 15 14 15 15 15 13 11 10 9 8 7 7 6 4 3 3 3 4 5 5 4 5 5 6 9 9 7 6
4 6 9 11 10 12 15 12 10 8 6 7 6 6 5 6 5 5 2 4 5 8 15 17 16 15 17 18 17 16 13 10 10 11 13 15 16 16 16 18 18 19 20 21 21 21 21 23 23 23 23 23 23 21 21 21 19 19 20 20 20 18 17 17 17 17 17 16 15 14 13 14 14 13 11 10 9 9 8 7 6 5 4 3 3 3 4 5 5 5 5 5 5 4 4 3 2
6 6 8 11 11 12 13 12 7 5 5 6 5 7 6 5 3 5 4 4 7 10 17 19 17 15 16 16 15 15 14 11 10 10 12 15 17 18 19 20 20 21 21 22 22 22 21 23 24 23 23 23 23 21 21 21 19 19 20 20 20 19 17 17 17 17 16 14 13 12 13 13 11 10 9 9 9 8 8 8 6 5 4 3 2 2 1 2 3 3 3 2 2 1 3 4 5
8 7 8 9 10 12 12 12 6 1 2 1 2 7 7 3 2 5 6 4 12 14 16 18 17 15 16 15 13 15 15 14 11 12 15 17 19 21 21 21 21 22 21 20 22 22 22 23 23 23 23 22 23 21 19 21 18 17 18 19 19 17 17 16 16 15 14 13 11 11 12 10 9 9 9 8 9 9 10 10 8 7 6 4 3 2 2 2 1 2 2 2 3 4 6 7 5
9 9 10 9 9 12 11 10 8 5 4 4 3 5 7 5 2 5 6 4 14 16 16 18 18 15 15 14 13 13 14 13 12 14 13 16 21 21 20 20 20 20 20 20 22 23 22 22 22 23 22 20 21 18 15 19 16 14 17 18 17 15 15 15 14 13 13 12 10 10 10 8 7 9 9 9 11 11 11 11 10 9 8 8 6 4 4 3 4 4 4 4 5 5 6 7 7
7 9 9 9 10 11 12 11 10 8 2 3 2 4 7 6 3 5 8 2 13 16 17 19 19 17 14 13 13 12 13 12 13 15 12 13 18 20 19 19 18 18 20 22 22 23 22 22 22 21 21 19 17 13 14 17 15 16 18 18 17 16 16 14 13 13 12 11 10 9 9 8 7 8 8 9 10 10 10 11 9 8 7 9 8 7 5 4 5 4 5 5 6 5 3 3 4
7 10 10 11 12 11 11 13 10 7 2 2 2 4 7 6 1 3 8 3 11 15 16 18 18 16 14 12 11 11 13 12 13 14 11 8 4 6 12 14 17 20 21 23 22 23 24 23 19 15 17 19 16 13 16 18 15 17 18 17 18 16 17 16 14 13 11 11 9 9 9 8 7 6 6 8 9 8 9 10 10 8 6 8 8 7 6 5 5 5 5 4 5 4 1 2 2
9 11 11 11 11 11 11 13 10 5 3 4 4 8 7 4 4 6 9 7 8 14 15 16 15 14 14 11 9 9 10 13 19 18 13 10 8 7 2 6 16 22 22 22 20 22 22 20 17 12 12 18 17 14 17 18 15 15 16 18 19 17 19 17 14 13 12 11 10 9 8 6 5 6 5 7 8 7 8 8 8 7 5 7 7 6 6 5 5 5 4 2 1 1 2 3 4
10 10 10 11 9 10 11 10 9 5 4 6 7 8 8 5 6 8 10 10 4 10 14 16 14 12 12 10 8 8 9 14 19 17 14 16 13 8 2 8 15 20 19 19 19 19 17 16 16 13 13 17 16 14 16 19 18 17 18 20 20 18 18 16 13 12 12 12 11 9 7 6 6 6 6 6 7 6 7 6 6 6 4 5 6 6 5 4 4 5 5 3 4 4 5 4 5
8 7 6 8 7 7 8 6 7 6 5 7 6 4 7 7 8 9 8 10 8 8 15 15 13 11 10 9 8 8 9 11 13 15 18 19 16 13 10 14 16 21 21 22 22 19 16 16 17 14 16 18 16 16 19 21 21 20 19 21 20 17 16 15 13 11 10 10 10 9 7 7 7 8 7 6 7 7 7 6 5 4 3 3 3 5 4 3 3 3 4 5 6 6 7 5 5
5 6 4 4 4 4 5 5 7 7 6 9 7 4 7 8 9 11 7 10 10 8 15 15 12 11 9 8 9 9 8 11 14 18 22 19 17 18 15 14 17 22 24 25 23 20 18 18 18 15 17 19 17 19 21 21 21 21 21 21 19 16 15 14 13 11 9 8 8 9 9 9 9 8 7 6 7 7 7 6 4 3 3 3 3 4 4 3 3 5 7 7 7 9 10 8 8
3 5 5 4 5 5 6 7 8 9 7 9 8 4 6 7 8 11 10 12 10 11 15 15 13 11 9 8 9 9 8 12 16 18 20 17 17 18 13 13 21 24 27 26 22 21 21 19 19 19 20 21 20 21 21 19 20 20 20 19 18 17 14 11 11 10 8 7 8 9 9 9 9 9 8 7 7 7 8 6 5 4 4 4 5 6 6 5 5 8 8 7 11 14 13 11 12
3 4 4 4 5 5 6 8 10 11 8 9 10 5 4 6 9 11 11 13 9 13 17 15 14 11 10 8 9 10 8 11 12 14 17 16 16 15 12 19 26 26 26 26 25 23 24 22 21 21 22 22 22 22 21 20 21 20 19 19 18 16 13 11 10 9 8 8 9 8 7 8 8 8 8 8 8 8 8 7 6 6 5 5 6 7 6 6 7 8 8 8 12 16 16 15 14
4 4 4 5 6 5 5 6 9 13 11 10 11 9 5 5 10 12 9 13 10 14 17 15 14 11 9 8 9 10 9 10 9 12 18 18 16 15 18 24 25 24 23 24 25 25 25 24 21 21 21 21 20 20 20 21 22 21 18 17 17 15 14 12 11 11 10 9 9 7 6 7 7 7 8 9 9 9 9 8 8 7 6 6 6 6 6 7 7 8 10 10 11 15 18 17 14
5 5 5 5 7 8 8 7 8 12 13 13 11 10 10 9 10 11 7 10 8 13 17 15 14 13 11 9 10 9 8 9 10 15 22 21 19 21 24 25 23 23 23 24 26 26 25 23 22 21 20 19 18 18 20 21 20 18 16 15 15 14 13 13 12 11 10 10 9 7 5 5 6 7 8 8 9 11 11 9 8 7 6 7 7 7 7 8 9 10 12 12 12 14 15 15 14
9 10 7 6 7 9 11 12 12 10 11 14 12 10 13 13 10 11 9 3 3 13 15 13 13 13 11 10 10 10 9 8 11 17 20 21 24 27 26 26 26 26 26 28 28 27 25 24 23 22 20 19 20 20 21 19 17 16 15 15 15 15 13 12 11 10 10 9 8 6 5 5 6 7 8 9 10 10 10 8 8 7 6 8 8 8 8 9 11 12 12 12 13 14 13 13 14
11 11 9 8 7 7 10 13 15 12 8 13 13 11 14 15 10 12 10 1 8 16 15 13 13 13 12 12 12 12 10 9 14 18 22 26 28 29 28 28 31 29 29 30 29 28 27 26 25 22 20 20 21 21 21 19 18 16 16 16 16 15 14 13 12 12 12 10 8 7 6 6 6 7 8 8 7 8 8 7 7 7 7 9 8 8 9 9 10 11 11 12 13 14 15 13 13
12 9 8 9 8 7 9 12 15 11 6 10 12 10 12 12 10 12 9 5 12 17 17 15 16 15 13 15 15 13 10 10 12 14 20 27 28 28 28 29 32 30 29 31 30 29 28 27 26 22 20 21 20 20 20 20 19 18 17 16 13 13 14 15 15 13 12 11 9 8 7 7 8 8 7 7 6 6 8 7 8 8 8 10 9 8 10 10 11 12 12 13 13 14 15 15 15
10 7 6 7 7 7 9 13 15 8 5 9 13 10 8 10 10 12 8 9 12 15 18 17 17 16 15 16 15 13 12 10 10 11 17 24 26 27 27 27 30 30 29 30 30 30 29 27 25 23 21 21 19 19 19 19 18 16 15 14 14 16 17 17 15 13 13 13 12 9 7 6 7 8 8 7 7 7 7 7 9 9 9 10 10 9 10 10 12 13 13 13 14 15 14 16 16
8 6 5 6 8 7 5 11 13 6 3 7 11 7 5 6 8 8 7 6 10 13 16 16 15 17 17 17 15 15 14 12 12 11 14 20 22 24 25 26 28 28 28 30 30 30 29 26 26 24 22 20 19 19 18 19 18 17 19 20 22 23 20 18 15 14 15 14 13 11 8 5 5 7 7 7 8 7 7 7 8 9 9 9 9 9 11 10 11 13 13 12 13 15 13 14 14
7 8 7 6 9 9 5 8 9 4 3 4 8 3 3 4 4 5 6 2 8 12 15 14 12 14 15 15 14 14 13 14 14 14 14 16 18 21 25 27 27 27 28 29 30 30 28 27 26 25 23 21 20 20 20 20 20 21 23 23 23 22 20 17 16 16 15 15 14 12 10 9 8 8 7 7 7 7 7 7 8 8 8 9 9 10 11 11 11 12 12 11 11 14 13 13 13
4 6 8 8 10 11 9 10 9 6 5 2 6 4 4 5 1 4 5 2 5 10 16 15 13 14 14 13 13 11 11 12 13 14 14 14 17 21 24 25 25 25 27 28 29 30 29 27 26 24 23 21 21 22 21 21 21 21 21 20 20 21 18 15 15 16 16 16 14 12 11 10 10 11 11 10 10 9 8 7 7 7 7 8 9 11 12 11 12 12 11 11 11 12 12 12 13
2 4 5 8 11 12 10 10 6 2 3 4 3 5 3 5 4 6 4 5 7 10 16 15 14 14 13 13 12 11 11 11 12 13 14 14 17 20 21 22 23 23 25 26 27 28 29 27 25 24 23 22 22 21 21 20 19 18 17 18 19 20 18 16 16 17 17 16 14 11 11 10 10 10 10 11 12 10 9 7 5 5 6 7 8 11 12 10 11 11 9 10 10 12 12 12 14
4 3 5 10 11 11 9 6 6 3 4 5 1 6 2 3 5 7 4 6 5 10 15 14 14 14 13 14 13 13 14 13 12 13 13 14 17 19 19 21 23 24 25 25 26 28 29 28 26 25 24 22 21 21 20 19 18 18 17 17 18 18 20 20 18 18 17 14 11 10 12 12 10 8 8 9 10 10 8 6 4 3 3 6 8 10 10 9 11 10 9 8 9 11 12 12 14
3 3 7 12 12 12 8 6 5 3 2 5 3 6 3 3 6 6 5 5 4 11 15 15 15 15 15 15 13 13 15 14 14 14 13 14 17 20 22 23 24 25 26 26 27 28 28 27 26 26 25 24 23 22 21 20 19 17 15 17 19 19 18 17 16 16 14 12 12 13 15 14 11 8 7 8 9 9 9 8 8 6 2 6 9 9 8 8 11 11 10 10 8 9 10 10 11
4 6 9 10 11 11 8 6 3 0 2 5 4 4 3 3 6 4 5 6 5 10 13 14 16 16 14 13 12 13 13 12 13 14 13 14 19 23 25 26 26 27 27 27 27 27 27 27 27 27 26 25 24 22 22 21 18 15 17 20 21 19 16 15 15 15 13 13 14 14 14 13 11 9 8 9 10 10 9 8 9 9 7 7 10 9 8 8 10 12 12 11 9 9 10 8 9
5 7 8 8 8 8 7 6 4 3 3 5 4 2 5 2 5 2 3 8 5 10 12 12 14 14 13 12 12 13 13 12 12 12 12 15 21 25 27 27 27 28 28 27 27 27 28 29 28 28 26 24 22 21 22 21 17 18 21 22 20 19 17 16 15 14 12 11 13 13 12 12 11 9 8 8 9 10 9 7 7 9 10 11 11 10 8 8 10 12 12 12 12 12 11 9 9
7 5 5 4 5 5 4 3 4 3 3 5 5 4 5 3 4 2 3 7 1 12 15 16 16 15 13 12 12 12 12 11 11 10 10 13 17 21 24 25 26 28 28 28 29 29 30 29 28 27 26 24 22 21 22 19 17 19 20 20 20 20 18 16 15 15 12 11 12 12 12 13 11 9 7 7 7 8 9 8 9 10 11 11 11 9 7 7 8 11 13 13 12 12 11 11 10
7 5 4 3 2 3 3 2 3 4 3 5 7 6 4 4 2 3 5 6 8 10 14 18 19 16 13 12 12 11 10 10 10 10 10 10 10 14 18 20 22 24 26 27 28 28 29 28 27 27 26 24 23 23 21 19 18 19 19 20 21 19 17 16 15 15 14 13 13 12 12 12 12 11 10 8 8 8 8 9 10 11 11 10 8 7 9 10 11 12 14 13 12 13 13 13 13
6 6 4 4 2 2 3 2 2 3 4 6 7 6 4 0 1 3 7 8 10 14 14 14 14 14 13 12 11 11 10 10 10 9 10 9 8 12 15 16 17 19 22 24 25 26 26 26 25 27 26 24 24 23 20 19 20 20 20 21 20 18 17 16 15 15 15 13 12 12 12 12 13 13 12 10 10 9 9 10 9 10 11 11 8 8 10 12 12 12 13 14 14 15 15 14 13
6 6 4 4 4 4 3 2 3 3 3 4 4 3 3 2 1 2 6 6 8 14 15 13 12 12 12 11 11 10 8 8 8 8 8 8 9 11 14 15 15 16 17 18 20 22 23 24 25 27 26 23 23 22 19 19 21 20 20 20 19 18 17 16 15 14 13 13 10 11 12 13 15 15 13 12 12 12 12 11 10 10 11 10 9 12 14 15 14 15 16 16 16 15 15 15 14
3 3 3 3 4 4 2 2 5 3 1 2 2 0 2 3 4 7 8 5 7 12 14 14 13 11 12 11 9 8 7 6 6 6 7 8 10 12 13 14 14 15 15 16 17 19 20 22 22 24 24 21 20 21 18 18 20 19 17 18 18 17 17 16 15 13 13 12 10 12 15 16 16 15 13 11 11 11 11 12 12 11 10 10 11 15 17 17 17 18 18 17 16 15 15 16 16
2 1 3 5 5 5 3 1 1 4 2 2 0 2 1 2 5 8 9 6 6 9 12 14 12 11 12 10 8 8 7 7 6 5 6 7 10 12 14 17 17 17 15 13 15 18 18 17 17 19 19 17 16 17 17 16 17 18 16 17 17 17 17 16 15 14 13 12 11 14 16 16 14 13 10 9 9 10 11 12 12 10 10 11 14 17 18 17 16 16 17 17 16 16 17 17 15
2 2 4 5 5 3 3 0 1 3 2 2 2 5 2 2 1 3 10 10 5 6 9 11 10 9 10 9 9 8 7 7 7 6 7 7 10 13 16 19 20 20 20 17 17 19 16 13 14 17 16 14 12 12 15 15 16 18 16 16 17 17 17 16 15 14 13 13 13 15 15 14 13 12 11 10 10 11 12 12 11 10 11 12 13 15 16 15 15 16 17 16 16 16 17 16 14
5 4 3 2 4 3 1 3 2 2 2 1 2 4 3 3 1 1 8 11 8 7 7 8 7 7 7 7 9 9 7 7 7 6 6 6 8 11 16 19 19 22 27 26 21 16 14 11 13 16 17 16 15 14 16 16 17 18 17 16 17 17 17 17 16 15 14 13 14 14 14 13 13 13 13 12 12 12 12 12 12 11 12 12 12 14 15 14 15 17 17 17 16 17 17 16 16
5 5 3 2 3 4 2 3 4 4 2 1 1 1 1 1 3 2 7 9 10 8 6 7 7 7 7 6 6 7 7 6 5 6 5 5 7 9 14 18 17 18 23 25 20 17 16 14 13 15 17 18 17 15 17 17 16 17 17 17 17 17 18 18 17 16 14 14 14 13 13 13 13 13 12 12 12 12 12 13 12 12 13 13 12 13 13 13 15 17 17 17 17 17 17 18 17
5 4 3 2 1 3 3 0 1 4 4 2 1 1 1 3 4 2 6 7 8 8 8 7 8 9 8 6 6 5 6 5 5 5 4 5 7 7 11 18 18 17 18 18 16 20 21 19 17 18 18 18 16 14 16 18 17 18 18 18 17 17 17 17 16 16 15 14 13 13 13 13 13 13 13 13 12 12 13 13 12 13 14 13 12 12 13 14 16 16 16 17 18 18 19 19 17
4 5 4 4 2 3 3 1 3 2 4 4 5 2 2 4 3 4 6 7 7 8 9 8 8 9 7 6 6 4 4 5 4 4 4 5 5 4 6 11 14 17 21 20 18 20 22 22 22 23 22 22 21 18 19 20 20 20 19 18 17 16 16 15 15 15 14 14 14 13 13 13 13 14 13 12 12 12 12 12 13 14 13 13 13 13 14 15 16 17 17 17 18 18 18 18 17
Wind_Direction
217 242 260 275 245 323 315 246 146 255 207 256 250 233 241 228 238 268 268 273 294 284 317 87 64 71 91 89 88 72 49 36 36 97 118 128 115 126 139 143 146 147 148 150 153 154 153 155 157 158 159 159 157 154 150 147 146 146 144 141 138 134 128 123 121 118 119 121 120 119 119 120 121 119 117 113 112 110 107 107 105 105 102 97 99 97 94 94 92 88 88 95 94 91 88 91 102
216 242 227 232 259 332 289 187 146 236 168 263 245 224 251 249 243 250 258 271 282 249 40 64 64 80 96 92 83 72 54 50 65 80 103 113 111 121 136 143 147 146 148 150 153 153 152 154 157 158 159 159 157 154 151 148 147 147 145 143 139 134 127 123 121 119 119 121 120 119 119 122 124 123 122 116 113 111 107 107 106 107 106 103 105 102 98 97 94 91 92 94 93 95 91 93 108
221 251 264 257 247 225 279 259 204 228 169 240 248 233 257 264 252 252 260 243 208 63 61 52 51 63 81 79 70 73 69 70 83 87 106 114 109 122 136 142 146 145 147 149 152 151 151 154 158 159 159 159 157 155 152 149 148 147 146 144 141 135 128 126 124 123 122 121 120 118 118 121 125 125 125 120 115 112 108 108 107 106 105 105 108 106 103 100 96 95 95 92 91 97 94 99 112
232 246 263 266 256 205 282 240 194 223 207 238 257 247 243 239 249 254 285 265 3 32 64 62 55 47 67 80 76 78 79 83 100 109 108 115 122 134 138 141 142 142 144 147 151 152 153 156 160 160 160 159 157 156 153 151 150 149 148 146 144 137 131 129 128 127 125 124 120 118 117 120 125 125 127 125 121 116 112 110 108 108 108 109 109 108 106 104 100 99 99 94 93 97 96 104 113
243 240 251 257 271 218 203 242 197 208 225 240 264 273 265 236 230 126 107 317 14 34 40 68 84 60 58 66 65 80 89 92 100 107 103 113 127 135 137 138 137 138 141 147 153 154 156 158 162 162 162 161 159 158 155 154 153 151 149 148 146 141 135 133 132 130 129 126 121 119 117 119 125 126 127 128 125 120 116 115 115 117 117 116 116 114 110 111 112 104 98 98 98 97 97 104 114
249 253 253 241 256 309 256 257 240 238 236 237 257 270 275 271 11 100 53 2 52 49 43 60 94 89 73 60 55 47 76 103 98 105 113 121 129 132 133 136 135 137 143 150 155 156 158 161 163 163 163 163 161 159 157 157 155 154 151 150 150 145 140 138 136 134 132 128 123 121 120 120 123 123 123 125 127 124 122 123 125 126 122 121 120 118 115 118 120 107 100 101 99 91 94 104 115
249 279 259 214 255 294 228 258 254 260 250 237 245 255 262 257 224 111 38 23 19 32 68 82 96 94 88 91 67 45 65 93 104 110 119 126 129 130 134 136 135 138 146 152 156 157 159 162 164 164 164 164 163 162 160 159 158 156 154 153 153 148 144 142 140 138 134 129 125 124 124 123 122 121 119 121 126 127 129 132 133 131 127 125 123 122 120 119 115 108 104 100 90 81 92 106 116
243 267 283 172 236 246 216 259 254 258 262 253 256 260 251 212 188 126 97 100 349 29 109 110 101 84 67 86 82 51 66 88 104 110 118 125 129 132 135 136 137 142 150 155 157 157 159 163 164 165 165 164 164 163 161 160 160 158 156 156 154 151 148 146 143 139 135 131 130 129 128 126 126 124 121 122 125 126 127 131 136 137 135 131 127 128 128 125 117 112 108 97 89 83 94 105 116
232 228 284 215 217 254 239 249 251 252 258 260 263 265 245 161 113 71 59 21 37 124 144 130 104 95 92 86 90 72 66 94 108 111 119 124 128 132 134 136 140 145 152 156 157 158 160 164 164 164 165 165 164 162 162 162 161 159 157 157 155 153 151 148 145 139 137 135 135 133 131 129 130 130 127 126 123 121 119 120 129 135 139 137 132 134 140 141 129 116 108 102 100 96 101 109 120
215 202 256 260 211 252 255 250 250 251 252 253 256 253 208 119 93 70 27 350 335 333 77 90 93 102 102 87 89 100 99 113 114 111 117 121 126 130 134 140 144 149 154 158 159 160 161 165 164 164 165 164 164 163 163 162 162 160 158 158 157 156 152 149 145 141 141 140 138 135 132 130 133 135 134 130 123 119 117 117 122 127 133 138 138 138 142 144 136 120 110 113 119 116 113 114 122
215 206 211 273 251 248 246 252 253 256 258 254 260 256 186 125 113 85 51 342 326 340 85 90 94 104 95 86 85 114 120 122 118 114 118 122 125 128 134 144 150 154 157 159 160 161 160 164 165 164 165 164 164 163 163 163 162 161 160 160 158 156 153 150 146 144 143 141 140 137 135 131 133 139 139 135 129 122 119 119 121 124 128 132 136 135 133 133 132 128 118 119 130 129 122 118 120
250 233 180 230 237 238 242 255 258 263 268 260 267 298 126 109 100 114 104 334 341 320 306 113 121 111 97 94 106 125 115 114 117 120 126 126 123 126 136 147 153 156 158 160 160 161 160 163 165 165 165 164 163 163 163 164 163 163 162 161 159 156 153 150 147 146 145 143 143 140 136 133 133 138 141 139 137 131 122 122 123 122 125 128 133 134 132 128 125 129 126 120 126 127 125 125 121
236 241 200 233 231 240 251 258 265 273 287 269 241 120 126 104 107 154 130 143 341 301 310 116 128 110 103 108 118 135 107 110 118 121 129 127 123 129 139 148 152 155 159 162 161 159 160 162 164 165 165 163 162 163 164 165 165 165 163 161 158 156 153 149 147 145 146 145 144 140 135 134 135 136 138 138 140 138 129 126 126 123 126 132 133 133 132 128 123 127 131 128 127 120 118 133 130
219 246 222 255 260 255 259 261 270 277 287 276 273 95 124 108 129 138 103 100 265 266 80 105 117 96 105 121 111 142 115 120 121 122 128 126 127 133 140 144 148 153 158 163 161 158 159 162 164 163 163 162 161 162 164 166 166 165 163 160 157 154 151 148 147 146 147 144 139 137 133 132 135 136 135 137 141 138 134 132 129 127 132 140 138 132 126 125 123 123 130 131 133 122 113 126 133
209 256 239 262 275 270 270 261 269 274 267 260 291 350 40 85 122 74 72 76 290 97 93 109 114 99 133 148 136 168 138 126 120 122 126 126 130 134 138 140 143 151 156 160 159 159 160 162 164 164 163 161 160 161 163 165 164 163 160 158 155 152 149 147 148 146 144 142 139 136 133 133 134 134 134 136 138 135 135 136 133 133 138 144 140 128 120 121 120 116 126 129 131 128 118 112 119
204 239 251 268 271 272 269 265 278 282 266 271 316 350 52 49 124 105 112 158 45 56 68 86 79 112 145 143 143 149 134 125 121 122 124 125 128 131 137 138 141 147 153 158 157 159 162 164 166 165 164 161 161 163 162 161 160 160 157 156 153 149 147 144 143 143 142 140 139 135 133 134 133 132 135 135 133 132 135 136 134 135 139 138 127 118 112 112 105 110 135 141 145 142 132 114 114
207 221 249 271 265 264 266 264 272 273 261 350 2 14 25 358 132 131 131 106 72 66 63 59 56 90 120 124 134 133 128 125 123 122 122 124 125 129 134 137 140 143 151 157 156 160 163 167 168 167 164 162 163 163 160 157 157 156 153 152 149 146 143 140 139 140 140 138 137 134 132 132 131 133 136 134 131 130 133 135 136 136 136 129 118 112 102 100 96 97 119 149 172 162 151 130 124
215 202 227 247 254 255 260 261 266 304 319 10 3 11 5 353 48 13 61 95 90 82 75 76 77 83 103 120 127 125 125 125 125 126 124 126 131 136 138 142 144 144 150 155 158 162 165 169 170 167 163 162 163 162 157 156 157 155 151 149 146 144 139 138 140 139 139 140 137 134 131 131 133 136 135 131 128 127 129 134 138 136 134 128 120 109 99 99 95 97 109 147 180 168 160 141 134
219 204 221 229 244 255 263 274 288 304 325 6 358 16 20 349 38 36 357 102 103 95 91 95 96 98 108 122 124 121 125 129 133 131 129 136 143 147 145 149 153 151 154 157 161 164 168 171 170 166 162 163 163 160 158 156 157 155 151 148 145 141 139 142 142 141 144 143 142 138 134 136 136 134 130 125 122 122 126 133 137 135 136 130 122 107 100 102 95 106 117 142 173 160 152 139 136
221 210 234 241 240 257 264 269 281 286 314 32 353 8 57 341 311 150 71 79 100 109 117 111 112 119 122 129 129 127 130 136 138 132 136 145 148 151 152 157 161 163 163 163 163 164 170 172 169 165 163 164 162 161 162 158 158 156 151 148 144 140 141 145 143 144 150 147 147 146 141 144 140 134 133 128 124 124 127 136 142 141 142 130 121 100 98 103 94 108 125 139 154 150 150 139 133
218 203 225 252 255 265 265 267 284 300 10 54 336 358 11 329 329 87 82 89 109 129 135 126 128 132 134 139 138 135 134 136 138 142 149 148 148 153 158 163 166 170 170 169 167 166 172 173 168 165 165 167 165 165 164 160 160 158 151 146 142 142 144 145 145 151 154 151 153 152 151 155 150 142 143 138 130 132 135 143 150 151 151 139 125 97 96 96 87 107 119 118 137 148 153 144 138
234 228 223 239 253 266 271 281 303 325 27 39 2 350 346 330 347 11 40 137 147 139 134 133 136 138 140 143 141 137 135 142 154 162 157 147 146 149 156 160 164 169 171 175 172 169 174 174 170 171 171 170 169 169 166 161 160 157 149 145 141 141 148 149 152 158 154 154 160 160 162 166 158 147 145 142 138 143 146 145 149 153 154 144 126 94 93 92 91 118 124 111 131 152 170 177 221
235 254 236 233 239 253 271 281 295 352 18 31 358 317 335 357 343 330 324 159 145 132 130 133 137 140 138 135 139 140 143 158 170 168 157 149 146 147 153 155 160 165 170 178 176 171 173 173 175 178 177 175 174 171 168 163 156 153 146 142 142 144 155 158 157 160 157 159 165 168 173 171 161 153 150 151 153 158 156 149 152 160 157 148 128 109 104 82 85 137 145 127 151 265 271 267 266
232 247 247 244 245 250 265 270 262 61 347 7 348 302 316 345 313 320 334 109 129 129 127 128 131 135 134 135 144 142 148 162 162 159 158 153 149 150 155 156 161 164 168 177 177 173 172 174 177 180 178 177 175 169 166 162 148 143 145 142 142 149 160 160 157 160 163 167 169 175 180 172 162 165 166 166 169 172 168 163 169 175 176 185 183 176 198 234 240 230 246 269 271 292 295 288 240
238 240 243 247 253 259 266 269 267 244 210 185 192 271 285 287 329 319 312 113 132 134 129 128 129 135 137 138 145 142 147 152 145 153 159 150 147 151 155 158 162 163 164 172 176 174 173 175 178 179 178 179 175 164 154 157 143 124 135 141 140 152 161 158 160 167 173 177 174 176 178 172 169 177 178 176 178 182 181 179 181 182 186 199 212 210 210 234 230 232 258 269 278 284 286 283 212
248 245 241 241 247 257 268 270 272 271 216 129 177 236 268 288 356 311 286 176 139 139 138 138 136 140 140 140 146 142 140 145 147 154 153 142 145 150 156 164 162 154 159 169 173 173 176 179 176 173 177 182 180 163 141 151 148 120 123 135 141 156 163 160 165 174 180 177 169 168 170 172 176 184 189 183 183 190 193 195 203 204 198 202 219 229 229 249 238 240 264 275 296 290 265 298 187
265 263 253 240 241 245 257 263 266 272 243 83 332 263 255 264 235 267 276 222 146 146 150 146 140 140 140 142 145 136 135 138 130 119 101 91 90 139 156 165 152 141 150 163 170 175 182 183 172 165 175 178 173 164 150 146 143 129 123 132 142 150 157 163 171 174 179 173 165 169 170 172 174 183 197 195 194 198 199 205 214 216 210 209 221 230 230 241 241 259 279 287 315 302 209 7 121
276 278 279 258 249 249 247 255 265 273 218 168 232 259 257 243 207 225 258 254 163 157 158 142 134 134 135 134 129 125 121 109 107 106 99 87 33 15 95 155 143 140 147 157 164 172 179 177 167 164 174 175 169 165 155 144 139 137 132 137 143 146 152 164 171 169 174 174 175 178 174 177 181 188 201 206 201 194 197 203 201 202 203 209 216 219 218 224 231 243 259 262 93 201 65 58 148
275 280 288 279 274 261 245 247 255 247 196 178 201 244 256 241 227 226 238 258 219 147 146 135 126 127 127 126 123 118 105 101 110 117 116 112 103 91 165 200 155 140 143 147 149 155 162 164 165 161 153 159 160 154 151 148 147 145 142 143 147 151 156 163 166 168 174 175 181 183 181 192 203 205 205 208 201 186 195 192 179 189 195 200 209 209 202 197 209 216 229 212 153 151 82 82 153
267 274 274 279 291 271 244 236 249 242 189 181 192 226 248 239 234 235 231 244 245 133 132 134 127 127 129 131 132 116 102 104 109 112 112 113 116 131 189 206 157 131 130 131 129 134 143 154 162 156 144 147 145 147 153 150 148 147 147 148 149 154 161 166 169 174 178 179 183 182 187 203 210 212 206 202 199 194 201 187 170 197 220 209 207 207 195 164 171 180 191 174 144 126 105 122 145
279 282 279 268 270 278 262 234 233 241 204 179 186 213 243 238 227 232 231 235 232 144 131 137 134 136 139 142 134 116 105 104 109 116 118 117 126 143 173 183 142 118 113 117 123 134 141 147 154 150 151 154 150 155 157 149 148 149 150 150 147 151 160 166 171 175 178 185 186 182 195 208 212 213 209 205 205 203 204 197 188 221 241 216 199 197 187 166 148 128 141 149 120 109 119 131 122
262 246 268 263 239 260 271 253 227 226 217 186 192 218 236 239 237 229 221 235 225 141 137 140 138 141 141 145 128 115 111 108 116 119 116 123 135 144 159 147 122 105 102 114 130 144 146 144 145 143 148 150 145 150 151 146 149 148 147 146 141 148 160 166 171 171 171 179 184 188 198 205 210 214 215 216 215 210 205 204 204 216 224 207 197 191 178 167 152 134 132 132 121 121 130 130 116
264 222 234 243 242 244 246 249 236 231 224 195 202 216 227 233 248 241 219 229 213 135 141 142 137 143 140 138 122 116 115 110 113 108 111 132 141 143 144 122 113 111 116 129 139 142 144 144 141 139 144 145 141 143 143 142 144 142 143 143 144 154 161 160 163 168 172 177 182 188 192 195 203 212 219 219 216 218 216 215 216 214 213 202 195 187 167 152 149 146 142 140 134 130 132 129 119
276 258 236 241 245 244 242 240 233 229 220 208 206 205 224 230 239 248 223 219 205 138 144 145 137 142 138 132 121 118 122 120 120 124 137 147 140 134 128 116 120 130 133 136 137 136 139 142 139 137 141 144 145 144 141 139 140 141 143 147 153 158 158 160 166 173 181 187 185 183 183 191 201 209 214 210 210 221 221 220 226 222 209 195 189 181 162 145 145 155 152 146 140 134 133 132 131
245 251 235 237 237 239 249 250 239 225 210 211 206 197 224 237 242 257 235 215 200 144 143 145 139 137 134 128 119 116 115 118 133 150 152 145 128 122 119 120 131 135 132 134 137 139 139 139 139 139 140 140 142 144 144 141 141 144 145 148 158 162 161 159 158 161 169 179 182 180 179 191 202 206 205 198 204 219 218 216 219 218 208 193 187 180 166 150 145 150 149 145 139 135 135 136 145
237 248 238 224 225 231 238 243 248 237 204 203 201 186 210 227 239 253 254 260 159 145 140 137 135 132 131 125 117 114 109 122 149 152 142 127 120 120 121 129 133 132 135 138 141 143 141 136 136 140 142 140 139 141 144 144 142 143 145 148 155 160 154 143 137 135 134 146 161 163 171 185 195 196 194 191 199 208 206 204 205 207 201 186 184 180 167 153 149 148 146 148 146 139 136 139 154
247 256 259 253 248 238 236 239 241 236 204 200 198 180 200 218 226 239 252 357 123 143 137 134 137 136 136 131 125 123 126 149 154 140 126 121 121 121 123 131 134 137 139 140 141 143 142 139 136 137 143 145 142 140 143 146 144 145 150 151 150 149 144 133 129 127 123 130 136 133 147 172 189 193 188 182 188 196 191 187 189 196 190 177 181 181 168 160 156 153 148 151 153 148 141 141 155
257 263 272 275 275 262 254 253 244 227 196 196 189 174 200 213 216 235 237 138 140 146 141 146 146 140 138 134 130 131 145 157 144 130 122 122 123 121 123 132 139 142 140 140 143 142 144 145 141 140 144 147 147 145 148 150 148 147 149 149 146 146 143 129 120 120 120 119 117 119 136 161 178 178 174 171 168 177 184 180 175 181 178 173 184 185 170 169 167 161 159 160 164 160 149 145 151
256 264 274 277 277 284 286 278 263 232 180 187 182 180 207 211 210 229 218 161 159 157 151 152 146 138 139 138 134 139 154 150 132 129 124 121 125 124 124 134 143 146 143 143 143 142 146 147 146 146 146 147 148 148 148 145 139 137 141 137 129 131 132 119 108 107 110 109 109 117 135 152 163 163 163 166 162 164 176 175 174 184 185 180 188 184 173 178 175 170 174 175 170 163 154 153 158
243 238 256 268 266 275 286 285 277 247 166 160 165 177 227 224 208 228 236 173 158 158 150 147 144 141 143 141 140 148 153 141 130 130 123 122 127 127 128 138 147 150 149 147 145 145 147 148 150 151 148 147 148 149 148 140 129 120 122 120 116 117 117 111 107 107 105 105 108 111 119 119 122 140 148 150 146 148 157 157 164 180 188 189 193 182 173 176 173 171 178 184 178 166 156 161 171
238 225 230 251 264 265 270 300 311 338 24 103 121 101 303 265 206 234 267 186 145 147 143 143 138 133 133 132 142 152 144 137 137 132 126 127 130 131 135 143 150 152 152 151 150 150 150 150 152 153 151 150 151 153 149 141 129 118 117 117 114 113 112 114 119 116 106 102 104 103 102 99 92 97 108 119 124 133 142 141 149 163 176 186 188 179 173 172 173 178 180 184 188 178 164 166 177
253 237 228 242 269 279 293 316 339 10 346 358 97 90 290 295 261 248 282 237 161 139 139 144 131 127 130 132 146 143 120 129 135 129 129 131 133 135 139 146 152 153 153 154 153 153 152 151 153 155 154 153 154 155 149 142 134 126 126 126 121 118 116 119 122 119 114 110 109 105 103 100 91 88 88 93 103 112 116 113 127 148 163 175 179 178 177 174 177 186 190 190 195 188 175 169 176
235 246 242 254 267 274 284 302 323 11 288 280 94 116 247 309 304 262 258 207 194 138 137 143 130 133 137 138 148 131 117 130 127 124 129 131 138 141 143 150 154 154 154 155 155 155 154 154 155 158 157 154 153 153 148 142 135 129 129 126 125 123 116 114 117 118 118 117 113 113 115 105 94 91 88 89 95 96 93 91 100 121 144 159 166 176 184 182 180 190 201 201 197 190 185 177 176
222 237 274 276 270 265 262 270 279 251 226 259 108 116 160 301 279 267 247 204 186 122 135 139 129 137 140 144 148 131 132 139 129 130 133 136 145 145 143 149 155 157 155 157 160 160 160 158 158 160 160 155 153 149 144 138 129 125 125 123 125 125 116 112 117 119 118 116 113 121 127 116 104 103 99 98 100 97 93 86 78 83 136 159 149 156 175 175 172 181 190 196 192 184 184 179 177
227 198 243 266 270 266 250 229 253 263 222 254 226 125 114 277 267 283 275 228 175 130 140 138 134 142 146 150 146 133 138 140 135 140 143 145 146 142 142 148 158 160 157 159 163 164 165 162 161 163 162 157 154 149 141 134 131 132 137 136 130 126 121 119 120 120 118 118 118 125 129 121 115 114 111 116 119 116 114 101 88 76 94 176 158 143 152 162 169 173 173 183 190 180 184 184 177
213 206 230 254 267 273 261 219 207 148 206 234 231 148 117 274 277 314 303 260 200 151 147 142 142 145 147 146 136 131 136 138 140 142 143 147 144 142 145 150 159 164 161 161 163 166 167 165 165 166 163 159 156 153 146 141 143 150 151 145 136 129 129 129 127 126 124 121 120 122 126 125 122 119 108 115 121 118 121 118 101 85 88 147 162 151 144 151 171 179 172 170 177 177 182 184 165
216 211 228 250 265 274 267 224 151 107 237 241 252 167 123 253 288 30 315 275 213 154 146 139 139 140 141 138 130 133 138 143 144 136 133 139 141 146 149 152 161 165 164 163 165 168 170 170 170 168 165 162 161 160 156 153 153 152 148 144 138 137 140 139 135 135 134 130 125 121 127 133 134 130 111 108 117 110 104 114 114 98 95 116 139 148 144 142 160 174 165 152 161 170 172 171 153
230 213 208 235 276 275 266 243 144 137 246 235 225 185 137 211 270 51 335 300 137 142 148 141 139 141 141 137 132 134 140 144 139 128 130 135 139 148 154 158 164 166 165 165 167 171 173 174 173 170 169 168 166 166 162 158 153 147 144 142 141 144 147 146 141 142 143 141 136 131 133 135 136 139 126 104 109 110 104 111 116 111 106 113 125 134 139 140 147 157 152 143 152 160 157 157 150
227 221 194 190 283 278 257 255 183 186 240 230 207 191 177 204 226 56 44 22 57 110 139 140 140 143 139 132 127 131 139 140 135 134 138 140 143 152 157 162 166 167 166 165 167 171 172 174 175 173 173 171 168 165 161 157 151 148 147 146 147 150 149 147 147 150 150 147 146 145 144 140 135 133 129 117 114 117 116 120 119 112 109 111 118 132 139 140 138 141 147 149 152 149 144 146 145
220 210 174 163 190 237 237 242 213 210 235 238 224 207 209 199 50 54 69 67 67 87 107 119 126 127 123 122 123 132 142 141 142 146 147 148 151 154 156 160 166 168 166 164 166 170 171 173 174 174 174 173 170 166 163 155 150 151 151 150 151 150 149 149 153 156 154 151 153 155 154 148 137 128 127 129 128 122 116 120 124 118 114 109 112 134 143 144 144 141 144 147 144 143 139 136 133
217 190 155 172 178 168 201 192 178 221 239 254 264 226 189 151 153 70 66 71 82 95 103 103 101 102 105 110 119 131 138 136 142 149 147 146 146 151 152 152 159 161 160 161 163 170 174 173 175 176 175 173 171 171 166 154 150 151 151 151 150 148 150 151 152 154 152 149 153 161 158 149 138 130 129 132 130 126 119 117 122 126 125 117 117 131 132 133 137 133 134 136 137 139 135 129 125
252 175 145 211 200 156 173 185 164 169 71 341 309 240 173 146 116 71 50 54 99 109 111 109 107 110 112 114 121 129 128 126 138 146 139 131 137 148 141 131 137 146 152 161 166 172 177 177 178 178 176 173 172 173 166 151 149 151 150 152 150 150 151 149 146 145 144 146 150 153 150 144 140 135 133 135 135 134 129 125 125 131 132 121 123 133 130 128 132 131 133 135 136 139 133 125 122
282 256 205 226 210 146 124 281 196 110 85 303 118 105 347 62 82 71 64 66 101 112 113 116 121 126 122 118 124 132 133 133 137 131 116 113 123 130 123 121 130 138 143 159 177 183 181 179 178 173 170 169 168 168 162 155 154 150 150 155 155 155 156 152 148 142 142 147 148 145 143 140 141 140 138 141 142 141 140 138 134 133 133 121 121 132 133 134 138 139 140 140 138 141 135 126 122
145 251 238 236 225 163 112 189 304 84 121 278 117 129 125 62 48 79 89 94 107 107 105 113 121 123 119 114 122 130 132 130 124 105 94 97 104 112 124 137 145 146 147 162 187 194 183 169 167 163 162 165 164 157 153 158 163 156 156 162 162 162 160 156 152 148 148 146 142 142 142 138 137 137 136 138 140 142 143 143 140 136 135 127 124 133 136 136 138 138 139 139 138 138 132 125 123
173 197 202 171 187 198 152 171 196 151 169 250 136 141 112 75 257 198 108 113 125 118 106 106 104 103 102 104 119 128 127 122 115 101 97 100 103 115 135 148 153 156 162 171 179 182 177 173 166 156 156 160 160 158 155 157 161 162 163 167 165 163 161 159 157 156 153 146 142 143 142 139 138 140 142 142 142 142 141 143 145 142 141 137 135 140 142 141 139 136 135 135 135 135 129 122 121
216 215 190 140 157 175 179 172 170 165 165 162 124 112 46 306 266 200 128 120 122 122 111 95 84 78 74 77 95 115 123 117 108 105 99 96 101 113 132 144 154 162 170 174 164 148 159 186 183 157 155 160 158 158 159 157 161 168 168 166 164 162 163 164 164 162 157 149 148 149 145 144 145 147 149 146 145 146 146 149 152 148 145 143 144 148 150 149 144 141 141 142 142 141 134 126 124
204 218 201 157 113 163 167 234 185 155 135 135 158 352 294 274 309 54 105 107 110 109 92 79 78 77 76 79 85 103 123 115 111 115 102 96 102 113 136 149 160 162 163 169 153 137 148 171 175 160 156 161 162 164 164 164 171 175 170 167 166 166 167 167 167 167 162 156 156 155 153 151 149 150 150 148 150 151 151 154 156 153 149 147 149 152 152 151 148 148 150 150 148 144 137 132 127
201 179 185 172 140 137 141 283 269 149 115 143 149 136 251 272 332 52 82 91 98 95 86 80 81 84 83 84 88 101 111 103 104 100 77 81 88 90 134 157 167 155 151 155 147 140 150 159 160 157 154 157 162 169 171 171 177 177 172 171 172 171 171 170 169 169 166 164 163 159 157 155 152 152 152 155 158 156 156 157 154 155 155 153 154 155 155 154 152 153 153 151 149 145 141 139 135
Height
773 774 774 775 775 776 777 777 790 789 789 801 792 785 769 748 749 747 742 734 734 727 712 711 710 712 724 738 743 744 747 753 758 762 777 769 758 762 759 761 764 765 769 771 774 776 777 778 780 782 784 786 788 790 791 792 794 795 796 798 798 800 801 803 804 805 806 807 809 810 811 812 813 814 814 815 816 817 818 819 820 821 822 823 824 825 826 827 828 829 830 831 831 832 832 832 832
773 775 774 776 775 778 779 776 794 795 796 806 787 775 760 746 751 748 742 735 734 723 709 709 709 715 724 733 735 742 752 752 751 754 761 760 761 765 762 764 764 765 768 771 774 776 778 779 781 782 784 786 788 790 792 793 795 796 797 799 800 801 802 804 805 806 807 808 810 811 812 813 814 815 815 816 817 818 819 820 821 822 823 824 825 826 827 828 829 830 831 832 832 833 833 833 833
774 775 774 777 776 778 779 779 795 798 802 805 782 764 753 752 751 742 736 730 724 713 709 710 713 719 724 736 740 750 761 754 750 754 759 761 763 767 767 765 765 767 768 771 774 776 779 780 782 783 785 787 789 791 793 794 796 797 798 799 801 802 803 804 805 807 808 809 810 812 812 813 815 815 817 817 818 819 820 821 822 823 824 825 826 827 828 829 830 831 832 833 834 834 834 833 833
774 775 775 777 778 780 783 786 792 795 801 796 780 760 750 752 745 737 732 723 716 710 712 714 724 725 726 744 746 751 761 755 753 755 760 763 763 767 767 767 768 769 770 772 774 777 779 780 782 783 785 787 789 791 793 795 796 798 799 800 801 802 804 805 806 807 808 810 811 812 813 814 815 816 818 818 819 820 821 822 823 824 825 826 827 828 829 830 831 832 833 834 835 835 835 834 834
774 775 775 777 782 781 782 786 784 790 793 784 776 758 746 744 737 734 728 721 715 712 714 717 733 732 730 743 744 754 760 755 754 754 760 764 764 766 767 770 770 771 773 773 775 777 778 780 782 783 785 787 789 791 793 795 797 798 799 801 802 803 805 806 807 808 809 810 811 813 814 815 815 817 818 819 820 821 822 822 823 824 825 827 828 829 830 831 832 833 834 835 836 836 836 834 834
773 774 774 776 779 775 783 790 786 786 775 768 768 753 743 738 732 731 725 721 715 713 714 719 733 736 743 746 744 753 753 753 757 756 760 765 767 767 769 771 771 772 773 774 776 777 779 781 782 783 785 787 789 791 793 795 796 798 800 801 803 804 805 807 808 809 810 811 812 813 814 815 816 817 819 820 821 822 822 823 824 825 826 828 828 830 830 832 832 833 835 835 837 837 836 835 835
774 776 775 778 778 775 788 794 788 782 764 755 756 746 740 734 728 726 725 725 721 716 715 723 728 738 753 748 750 755 748 751 755 759 762 765 768 768 770 771 771 773 774 776 778 779 781 782 782 784 785 786 788 790 793 794 796 798 800 801 803 804 806 807 808 810 811 812 813 814 815 816 817 818 819 821 822 823 823 824 825 826 827 828 829 830 831 832 833 834 835 836 837 837 837 837 837
775 778 774 780 784 780 789 790 784 776 759 748 743 738 735 729 724 723 726 727 727 722 719 724 724 743 759 747 761 764 751 754 754 761 764 766 769 769 771 770 771 773 775 777 779 781 782 783 783 784 785 787 788 790 792 794 796 798 800 801 803 805 806 807 809 810 811 813 813 815 816 817 818 818 820 821 822 823 824 825 825 827 828 829 830 831 832 832 833 834 835 836 838 838 838 838 838
775 778 776 781 787 785 786 785 778 766 755 745 738 734 729 723 721 723 726 726 726 723 722 723 721 747 761 753 768 766 757 759 756 760 762 766 769 770 772 771 772 773 775 777 779 781 782 783 783 785 786 788 789 791 793 794 796 798 800 801 803 805 806 808 809 811 812 813 814 815 816 817 818 819 820 822 823 824 824 825 826 828 829 830 831 832 833 833 834 835 836 837 838 839 839 839 839
775 776 777 781 785 790 789 782 772 760 750 740 733 728 725 721 720 724 727 727 725 724 724 721 726 746 758 761 770 766 763 761 757 761 763 765 768 770 773 773 775 775 776 778 779 781 781 783 783 785 787 788 790 791 793 794 796 798 800 802 804 805 807 808 810 811 812 814 815 816 817 818 819 820 821 822 823 824 825 826 827 828 829 831 832 833 833 833 834 835 836 837 838 839 839 839 839
778 774 775 784 789 792 789 780 768 756 745 736 729 722 721 719 720 725 726 728 724 725 726 725 740 749 756 766 771 767 763 762 759 761 763 765 767 769 772 774 776 776 777 778 780 781 782 784 784 786 786 788 790 791 794 795 797 798 800 802 804 806 807 809 810 812 813 815 816 817 818 819 820 821 822 823 824 825 826 827 828 829 830 832 833 833 834 834 835 836 837 837 838 839 839 840 840
781 776 776 788 790 787 781 774 765 754 744 737 732 722 719 718 722 727 727 729 725 727 724 726 741 744 758 772 770 767 763 763 762 761 764 765 766 768 772 775 777 778 779 779 781 782 783 785 786 787 788 789 790 792 794 795 797 798 801 802 804 806 808 810 811 813 814 816 817 818 819 819 820 821 823 823 824 825 827 828 828 830 831 833 833 834 834 835 836 836 837 838 839 839 840 841 841
779 775 778 786 780 776 773 769 760 754 750 739 731 721 717 719 723 724 724 728 726 731 725 723 732 735 760 773 769 768 764 765 763 762 765 766 769 771 774 776 778 779 780 781 781 783 784 785 786 788 789 790 792 793 795 796 797 799 801 803 805 807 809 811 812 814 815 817 818 819 820 820 821 822 823 824 825 826 827 829 829 830 832 833 834 835 835 836 836 837 838 838 839 840 840 841 842
772 770 776 781 773 770 768 765 758 757 754 737 726 719 715 718 719 718 721 729 729 730 726 723 727 739 763 771 773 771 765 766 764 764 766 768 772 774 777 778 779 780 781 782 783 784 785 786 788 789 790 792 793 794 796 797 798 800 802 804 806 808 810 812 813 815 816 817 819 819 820 821 822 823 823 824 825 826 828 829 830 831 833 834 835 835 836 836 837 838 838 839 839 840 841 841 842
767 766 771 778 775 772 766 762 756 756 752 734 724 719 717 716 714 717 721 729 730 722 723 725 725 743 763 767 773 770 765 767 765 766 767 771 774 775 779 779 781 782 783 783 784 785 786 788 788 790 791 792 794 795 797 799 800 802 803 805 807 809 811 813 814 816 817 818 819 820 821 821 822 823 824 825 826 826 828 830 831 832 833 834 835 836 837 837 838 839 839 840 840 841 841 842 842
760 764 772 778 777 775 766 757 753 756 748 733 724 719 722 718 711 718 717 719 728 723 726 732 727 737 753 756 762 762 763 766 765 767 768 772 774 776 779 780 783 783 784 784 784 786 787 788 789 790 792 793 795 796 798 800 802 803 805 807 809 811 812 814 815 816 818 819 820 821 822 823 823 824 825 826 826 827 828 831 832 833 834 835 836 836 837 838 839 839 840 840 841 841 842 842 842
756 764 775 780 779 774 763 754 753 752 743 732 724 720 727 725 714 715 710 715 732 735 734 737 732 734 744 751 756 759 763 764 765 767 768 772 774 777 780 781 783 783 784 785 785 787 787 789 789 791 792 794 796 797 800 801 804 805 807 809 811 812 813 815 816 818 819 821 822 822 823 824 825 826 827 826 826 827 829 831 833 834 835 836 836 837 838 839 839 840 840 841 841 842 842 842 842
759 768 777 781 777 768 756 749 746 742 738 733 726 721 725 728 723 717 716 726 736 741 742 741 741 742 746 752 757 759 762 764 765 766 768 772 774 777 780 781 783 783 784 785 786 787 788 789 790 792 794 796 797 799 801 802 805 806 808 811 812 814 815 817 817 819 821 822 823 823 824 825 826 828 828 828 827 828 830 832 834 835 836 837 837 838 838 839 840 840 841 841 841 842 842 842 843
761 767 773 775 767 756 746 743 741 739 738 732 726 723 724 727 726 721 726 736 739 746 751 747 749 754 754 755 759 761 761 763 763 764 767 771 774 776 778 781 783 783 784 785 786 787 788 789 790 793 795 797 798 800 801 803 805 807 809 811 813 815 816 818 819 820 822 822 823 823 825 826 827 829 829 829 828 829 831 833 834 835 836 837 838 838 839 839 840 841 841 841 841 842 843 843 844
758 762 772 767 755 749 741 739 738 735 732 730 728 724 725 726 722 723 729 738 742 749 753 751 756 759 759 759 760 762 762 763 763 764 767 770 773 775 777 779 781 783 784 784 786 788 788 789 791 794 795 797 799 800 802 804 806 808 810 812 814 816 817 819 820 821 822 823 824 824 825 827 828 828 829 829 828 830 832 834 835 836 837 838 838 839 839 840 840 841 841 841 841 842 843 844 845
755 758 766 758 750 749 740 736 735 731 728 728 729 726 728 725 720 723 728 739 748 747 747 749 753 754 757 759 759 761 762 763 764 764 766 769 773 775 777 778 780 782 783 784 786 788 789 790 793 795 796 798 800 801 803 805 807 809 811 813 815 817 818 820 821 822 823 824 825 826 827 827 828 828 828 828 829 831 833 834 835 837 838 838 839 839 840 840 841 841 841 842 842 843 844 845 846
755 754 755 749 748 749 738 733 735 730 727 729 731 730 730 725 722 725 728 739 744 740 739 741 746 749 752 754 756 760 762 762 763 763 766 769 772 774 776 778 780 782 783 784 786 788 789 791 793 795 797 799 800 802 804 807 809 811 812 814 817 818 820 821 821 823 824 826 826 827 828 828 828 828 828 828 830 832 833 835 836 837 838 839 839 839 840 840 841 842 842 842 843 844 844 846 846
756 754 747 744 744 744 736 733 733 729 729 733 733 730 728 730 730 726 727 734 732 729 731 735 740 744 747 750 754 759 761 762 762 764 767 768 770 772 775 777 778 780 782 783 785 788 789 791 794 795 797 799 801 803 805 807 810 813 815 816 818 819 820 821 822 824 825 826 827 828 829 829 829 828 829 829 831 832 834 835 836 837 838 839 839 840 841 841 841 842 843 843 843 843 844 846 846
754 754 746 742 740 739 734 731 731 729 730 731 730 729 731 736 734 727 728 730 727 725 727 731 737 741 745 749 754 758 759 761 763 765 767 767 769 772 774 776 778 780 782 784 785 788 790 792 794 796 798 799 801 803 806 809 813 816 817 819 820 820 821 822 824 825 827 827 828 828 829 829 828 828 829 830 832 833 835 836 836 837 838 839 839 840 841 841 842 842 843 843 843 843 844 845 846
750 751 744 739 737 735 731 730 730 728 729 727 729 733 734 733 732 730 731 730 727 725 726 729 735 741 745 750 753 756 758 761 763 765 767 768 771 773 775 777 779 781 782 784 785 787 790 791 793 796 798 801 803 805 809 812 815 817 819 822 822 823 823 824 825 826 827 828 828 828 829 829 828 829 830 831 832 833 835 836 836 837 838 839 840 841 841 842 842 842 843 843 843 843 843 844 846
746 744 741 738 737 733 730 730 729 728 727 727 732 737 734 728 731 734 729 728 728 725 727 729 733 741 745 748 751 753 757 761 763 766 770 773 775 776 778 779 780 782 783 784 785 787 788 790 793 796 799 802 805 808 810 812 814 816 820 823 823 824 824 825 826 826 827 828 828 828 829 829 829 829 830 831 833 834 835 835 836 837 838 839 840 841 842 842 842 843 843 843 843 843 842 844 846
740 738 737 735 734 731 729 729 728 727 726 727 735 739 734 727 733 740 729 723 728 729 730 729 732 740 743 747 749 752 756 760 764 768 775 780 783 783 783 782 781 781 783 784 785 786 788 791 794 797 800 802 805 806 808 809 812 815 819 822 823 824 824 825 826 826 826 827 827 828 828 828 829 830 831 831 833 834 834 835 836 837 838 839 840 841 842 842 843 843 843 843 843 843 843 844 848
737 737 738 734 732 731 729 729 728 727 728 727 732 738 735 731 736 739 727 720 724 730 733 733 736 740 742 747 750 752 755 760 765 768 774 780 786 790 791 788 783 781 782 783 786 788 789 792 795 797 800 802 803 804 805 808 811 814 817 821 823 823 824 824 825 826 826 827 827 827 828 827 828 829 830 831 832 833 834 835 836 837 838 839 840 841 841 842 842 843 844 844 843 844 844 846 851
737 737 742 739 734 734 730 729 727 728 731 725 730 743 743 738 737 731 723 719 721 727 732 735 740 742 744 748 752 754 756 760 764 768 773 777 781 788 793 793 786 782 783 785 788 790 792 793 795 797 799 801 803 804 805 806 809 812 815 818 821 822 822 823 824 826 826 826 827 827 828 827 828 829 830 831 832 833 833 834 835 836 837 838 839 840 841 841 842 843 844 844 843 844 844 848 852
738 738 743 744 743 741 730 727 727 728 730 721 732 755 753 740 734 726 721 719 721 729 734 736 741 744 747 751 753 755 756 760 763 768 773 775 778 782 790 794 787 784 786 788 791 793 793 794 795 797 799 802 803 805 805 805 808 811 814 817 819 820 820 821 823 825 825 825 826 827 827 828 828 829 830 831 832 832 833 834 835 836 837 838 839 840 840 841 842 842 844 844 844 844 844 850 852
741 743 744 746 754 749 731 726 729 731 728 719 732 755 752 739 731 723 720 719 721 731 736 737 741 744 749 752 753 756 758 761 766 769 771 773 776 778 786 791 787 787 789 792 794 794 794 793 794 796 798 800 801 803 804 805 808 810 813 816 818 819 819 820 822 823 823 824 825 826 827 828 828 830 830 831 832 832 833 834 835 836 836 837 838 839 840 841 841 842 843 844 844 844 845 849 851
744 752 756 751 753 750 735 727 727 732 728 719 732 751 748 736 729 721 719 718 720 731 737 738 742 746 751 752 752 756 760 763 767 769 770 773 776 779 787 789 787 790 792 794 794 792 793 793 794 795 797 799 800 802 803 805 808 810 813 816 817 819 819 820 821 822 823 823 825 826 827 828 828 830 831 831 832 832 833 834 835 836 836 837 837 838 840 841 841 842 843 844 844 844 846 848 850
748 753 760 754 752 752 742 730 723 726 728 724 731 744 744 734 726 720 718 717 719 730 737 738 743 747 751 752 753 757 762 765 767 768 771 773 775 779 786 787 786 790 790 791 791 791 793 794 795 796 797 799 801 802 804 806 809 811 814 816 818 819 820 820 820 821 822 823 824 825 826 827 828 829 830 831 832 832 832 834 835 836 836 836 837 839 840 841 841 842 843 844 844 845 846 847 849
758 753 756 752 748 750 746 736 723 720 727 729 729 736 738 731 723 719 717 716 719 730 736 737 742 746 750 752 755 759 762 765 767 767 768 770 773 778 784 785 786 789 790 790 791 793 794 795 797 798 799 801 802 804 806 808 810 813 814 816 818 819 820 821 821 822 822 823 824 825 826 827 828 828 829 831 832 832 832 833 834 835 836 836 837 839 840 841 841 842 842 844 845 846 847 847 849
762 758 756 752 746 746 745 738 725 719 725 729 730 735 734 728 722 718 716 715 720 730 733 735 740 744 749 752 756 760 763 765 766 763 764 767 772 778 782 785 787 789 792 793 794 795 796 798 799 800 801 802 803 805 807 809 811 813 815 816 818 819 820 821 822 822 823 823 824 825 826 826 827 828 829 831 831 832 832 833 834 834 835 835 836 838 840 841 841 842 842 843 845 846 847 847 851
753 751 751 751 748 743 737 730 720 716 725 727 729 734 732 727 723 717 715 714 722 731 733 736 740 743 747 751 756 762 766 766 764 764 766 770 774 778 782 784 787 790 792 793 794 795 797 798 799 800 801 802 804 806 808 810 812 813 815 816 818 819 820 821 822 823 823 824 824 825 826 827 827 828 829 830 831 831 832 833 834 834 835 835 836 837 839 841 841 841 842 843 844 846 847 849 852
744 744 745 744 745 742 731 723 713 710 723 726 723 729 729 725 722 716 714 717 725 732 735 738 741 743 746 750 756 763 767 765 763 766 769 772 775 778 781 784 786 789 791 792 793 795 796 797 798 800 801 803 804 806 808 809 811 812 814 815 816 818 819 820 822 823 823 824 825 825 826 826 827 828 829 830 831 831 831 832 833 834 835 835 836 837 839 841 841 841 842 843 844 846 848 850 852
744 745 746 744 743 738 727 718 709 703 718 725 720 725 727 723 721 715 713 722 730 729 731 737 739 741 745 748 755 761 763 763 764 768 769 772 775 778 782 784 786 787 789 791 792 793 794 795 796 798 801 803 804 806 807 808 810 811 812 814 816 817 819 820 821 822 823 824 825 825 826 826 827 828 829 830 831 831 831 832 833 834 834 836 837 838 839 840 841 842 842 843 844 845 847 849 851
744 745 748 749 742 735 727 716 705 701 712 721 719 722 723 719 717 714 712 718 725 722 722 730 734 739 744 748 753 758 760 763 766 768 770 773 776 778 781 784 785 786 787 789 790 791 793 794 796 798 799 801 803 805 806 807 809 810 812 814 815 817 819 820 821 822 823 824 825 826 826 826 827 829 830 830 830 830 830 832 833 834 835 836 837 838 839 839 840 841 842 842 844 845 847 849 850
743 744 748 749 738 736 738 723 707 702 707 714 717 721 722 717 715 713 711 712 717 720 721 725 729 734 740 744 749 753 756 762 766 768 770 773 776 778 780 782 783 784 785 787 789 790 792 794 795 797 798 800 802 804 806 807 809 810 811 813 815 816 818 819 820 822 823 824 825 826 826 826 828 829 829 830 830 830 830 831 833 834 834 835 837 838 839 839 840 841 841 842 843 845 847 849 850
742 739 743 745 734 732 737 728 716 708 706 708 716 728 728 720 720 716 709 709 714 720 724 728 731 734 739 745 749 750 753 759 763 766 769 772 775 777 779 780 781 781 783 785 787 789 791 792 794 796 797 799 801 803 805 806 808 810 811 813 815 816 818 819 820 822 823 824 825 826 827 827 828 829 829 830 830 831 831 831 832 833 834 835 836 837 838 839 840 841 841 842 843 844 846 848 850
742 736 733 734 731 729 731 730 729 729 724 712 715 741 743 724 722 720 714 713 715 720 726 730 735 738 743 749 750 751 756 760 761 764 768 771 774 776 778 779 780 781 783 786 787 789 790 792 793 795 796 798 800 802 804 806 808 809 811 813 814 816 818 819 821 822 823 825 826 826 827 828 828 829 829 830 831 831 831 832 832 833 834 835 836 837 838 839 840 840 841 843 843 844 846 847 849
744 733 725 725 726 729 732 734 740 747 741 720 713 740 751 733 724 721 718 718 717 722 729 731 736 742 745 748 749 752 758 761 763 765 767 770 773 775 777 779 780 782 784 786 788 788 789 791 792 794 796 798 800 802 804 806 807 809 811 812 814 816 817 819 821 823 824 825 826 827 827 828 829 829 830 830 831 831 832 832 833 834 834 835 836 837 838 839 840 840 841 843 843 844 845 847 848
739 726 721 726 726 729 732 734 740 742 737 727 718 728 747 747 732 720 720 722 722 728 733 733 738 743 745 746 747 751 756 759 762 765 768 770 772 773 777 780 781 782 783 785 786 787 788 790 792 794 796 798 800 802 804 805 806 808 810 812 815 816 818 820 822 823 824 825 826 827 828 829 830 830 830 831 831 832 832 833 833 834 835 835 836 837 838 839 840 841 841 842 843 844 845 846 847
728 719 720 725 725 726 727 730 737 735 737 744 731 726 748 755 734 721 722 725 730 736 735 735 740 743 743 745 748 751 753 756 759 763 766 769 771 773 776 779 781 781 783 784 785 787 788 790 792 794 796 798 799 801 803 804 806 808 810 812 815 817 819 820 822 823 824 825 825 827 828 829 830 831 831 831 831 832 833 833 834 834 834 835 836 837 838 839 840 841 841 841 842 843 844 846 847
719 717 721 722 722 723 723 728 733 736 745 753 738 730 749 756 736 728 731 728 732 737 734 734 739 741 742 745 748 751 753 756 758 761 765 769 771 773 775 778 780 781 782 784 786 787 789 790 792 794 796 798 800 801 802 803 806 807 809 812 814 817 819 820 822 823 824 825 826 827 828 829 830 831 831 831 832 832 833 834 834 835 834 835 837 838 838 839 840 841 841 842 842 843 844 845 847
714 717 723 726 726 724 725 725 727 743 755 748 735 729 744 757 745 738 741 733 725 730 734 737 740 741 743 745 748 750 753 756 758 761 766 769 771 773 774 777 778 780 781 784 785 787 788 790 792 794 797 798 799 801 802 803 806 807 809 811 814 816 818 820 822 823 824 825 826 826 827 828 829 830 831 831 832 832 833 834 834 835 835 835 837 838 838 839 840 841 841 842 843 844 844 845 846
715 720 726 735 737 732 734 729 729 754 764 745 730 727 739 757 750 740 741 730 718 721 731 737 741 743 743 744 746 749 752 755 758 763 767 769 771 773 775 776 778 779 780 782 784 786 788 790 792 794 796 798 799 801 803 804 806 808 810 812 814 816 818 820 822 824 825 825 826 827 827 828 829 830 831 832 832 833 833 834 835 835 836 837 837 838 839 839 840 841 841 842 844 844 845 845 846
717 722 729 745 752 749 752 748 743 756 757 738 728 732 744 753 746 739 737 729 719 719 725 731 735 740 741 742 746 749 752 755 758 763 767 770 772 773 775 777 778 780 780 782 785 786 788 790 793 795 796 798 800 801 803 804 806 809 811 813 815 817 819 821 823 824 825 826 826 827 827 828 829 830 831 832 833 833 833 834 835 836 837 837 838 838 839 840 840 841 842 843 844 844 845 846 847
721 725 732 747 758 764 767 759 754 756 748 732 724 733 750 754 746 739 735 730 726 723 727 732 734 737 741 743 747 750 753 756 758 762 765 769 771 773 776 778 781 782 783 785 787 788 790 792 794 795 797 799 800 802 804 805 807 809 811 814 816 818 820 822 823 824 825 826 826 827 827 828 829 830 831 832 833 834 834 834 835 836 837 838 839 839 840 841 841 842 843 843 844 845 846 846 847
716 714 720 735 744 754 763 758 756 758 747 736 733 740 755 759 751 739 732 731 730 728 731 736 738 740 743 747 750 753 756 758 760 763 766 769 773 775 778 781 785 787 788 789 791 792 793 794 796 797 798 800 802 803 805 806 808 810 812 815 817 819 820 822 824 825 826 826 827 827 828 828 829 830 831 833 834 834 835 835 836 837 838 839 840 840 841 842 842 843 843 844 845 845 846 846 847
714 705 716 731 728 732 746 750 748 750 749 747 748 751 751 749 746 740 737 737 735 733 733 737 742 744 746 751 755 757 760 761 763 766 768 772 776 778 780 784 788 791 792 792 793 794 795 796 798 799 800 802 804 806 807 808 809 811 814 816 818 819 821 822 824 825 826 826 827 827 828 828 829 830 831 833 834 835 836 836 837 838 840 840 841 842 842 843 843 844 844 845 845 846 846 847 848
720 715 722 721 711 716 738 749 743 744 756 757 754 756 750 746 751 748 745 746 744 740 738 740 745 747 750 756 758 760 762 763 766 768 770 773 777 779 781 783 786 789 793 794 794 794 796 799 801 802 803 805 806 808 809 810 811 812 815 817 819 820 821 822 823 824 825 826 826 827 828 829 830 831 832 833 834 835 837 837 838 840 841 841 842 843 843 844 845 845 845 846 846 846 847 847 848
719 724 719 710 710 714 728 747 750 751 763 762 757 760 757 761 770 762 753 754 754 750 746 745 748 750 754 758 760 762 762 764 768 769 771 774 776 779 780 782 783 785 788 792 793 794 797 800 802 802 804 807 809 810 809 811 813 814 817 818 819 820 821 822 823 824 825 826 826 827 828 829 830 831 833 834 835 836 837 838 839 841 842 843 843 844 845 845 846 846 846 847 847 847 847 848 849
706 712 708 713 729 733 732 745 755 760 767 765 762 763 762 770 777 768 762 761 758 756 754 753 753 754 757 759 760 763 764 766 769 771 772 774 776 778 779 781 783 783 784 785 789 794 798 802 802 801 804 807 809 809 809 811 814 816 818 819 820 820 821 822 823 824 825 826 827 827 828 829 831 832 833 835 836 837 838 839 840 841 842 843 844 845 846 846 847 847 847 848 848 848 849 849 850
699 703 704 709 722 733 734 737 744 754 765 772 775 773 771 773 769 762 762 761 758 759 758 758 759 761 763 764 764 766 767 769 771 772 774 775 777 779 780 782 784 785 785 785 788 792 797 803 805 802 803 805 806 808 810 812 816 818 819 819 820 821 821 823 823 825 826 827 828 828 829 830 831 833 834 835 837 838 839 840 841 842 843 844 845 846 847 847 848 848 848 849 849 850 850 851 852
708 713 714 713 718 725 730 732 732 739 757 776 784 784 777 769 761 758 760 760 760 762 763 763 764 766 768 769 769 770 770 772 773 774 775 777 779 781 782 783 785 786 788 789 790 792 795 803 806 803 803 805 806 809 812 814 817 819 819 819 820 821 822 823 824 825 826 827 829 829 830 831 832 834 835 836 838 838 840 841 842 843 843 845 846 846 847 848 848 849 849 850 850 851 851 852 852
706 712 713 714 720 725 736 745 735 730 748 765 773 783 781 768 761 761 761 763 763 764 766 768 768 770 772 772 772 773 772 773 775 776 777 778 780 781 782 784 785 786 788 789 791 794 798 803 805 803 804 806 808 811 813 815 817 818 818 819 820 821 822 823 824 825 827 828 829 830 831 831 833 834 836 837 838 839 841 842 842 843 844 845 846 847 848 848 849 849 850 850 851 851 852 852 853